Location: Nashville
(36.1660°N, 86.7840°W)
Time: 02:53:33
(UTC-06:00)

A-11 Canister half - All Passes

Search period start: 28 January 2022 00:00
Search period end: 07 February 2022 00:00
Orbit: 1516 x 1684 km, 47.2° (Epoch: 27 January)

Date Brightness Start Highest point End Pass type
(mag) Time Alt. Az. Time Alt. Az. Time Alt. Az.
28 Jan - 00:49:07 10° W 00:53:22 14° WSW 00:57:39 10° SSW night (unlit)
28 Jan - 13:55:24 10° SSW 14:04:28 45° SE 14:13:14 10° ENE daylight
28 Jan - 15:59:32 10° WSW 16:09:08 69° NNW 16:18:27 10° NE daylight
28 Jan - 18:06:30 10° WNW 18:15:21 42° N 18:24:02 10° ENE visible
28 Jan - 20:12:45 10° NW 20:21:51 55° NNE 20:30:54 10° E visible
28 Jan - 22:17:52 10° WNW 22:26:58 65° SW 22:36:09 10° SE visible
29 Jan - 00:25:38 10° W 00:30:33 16° SW 00:35:30 10° SSW night (unlit)
29 Jan - 13:32:38 10° SSW 13:41:36 42° SE 13:50:16 10° ENE daylight
29 Jan - 15:36:32 10° WSW 15:46:11 72° NNW 15:55:33 10° NE daylight
29 Jan - 17:43:27 10° WNW 17:52:20 43° N 18:01:03 10° ENE visible
29 Jan - 19:49:48 10° WNW 19:58:53 53° NNE 20:07:53 10° E visible
29 Jan - 21:54:56 10° WNW 22:04:06 68° SW 22:13:18 10° SE visible
30 Jan - 00:02:17 10° W 00:07:44 17° SW 00:13:14 10° SSW night (unlit)
30 Jan - 13:09:55 10° SSW 13:18:44 39° SE 13:27:17 10° ENE daylight
30 Jan - 15:13:32 10° WSW 15:23:14 75° NNW 15:32:38 10° NE daylight
30 Jan - 17:20:23 10° WNW 17:29:19 43° N 17:38:05 10° ENE visible
30 Jan - 19:26:50 10° WNW 19:35:55 52° NNE 19:44:52 10° E visible
30 Jan - 21:32:00 10° WNW 21:41:13 72° SW 21:50:27 10° SE visible
30 Jan - 23:39:00 10° W 23:44:55 19° SW 23:50:53 10° SSW night (unlit)
31 Jan - 12:47:11 10° SSW 12:55:52 37° SE 13:04:16 10° ENE daylight
31 Jan - 14:50:33 10° WSW 15:00:17 78° NNW 15:09:44 10° NE daylight
31 Jan - 16:57:19 10° W 17:06:19 44° N 17:15:05 10° ENE daylight
31 Jan - 19:03:52 10° WNW 19:12:56 50° NNE 19:21:51 10° E visible
31 Jan - 21:09:04 10° WNW 21:18:20 77° SW 21:27:35 10° SE visible
31 Jan - 23:15:47 10° W 23:22:06 21° SW 23:28:28 10° S visible
01 Feb - 12:24:29 10° S 12:33:00 34° SE 12:41:15 10° ENE daylight
01 Feb - 14:27:33 10° WSW 14:37:21 82° NNW 14:46:49 10° NE daylight
01 Feb - 16:34:15 10° W 16:43:18 45° N 16:52:08 10° ENE daylight
01 Feb - 18:40:54 10° WNW 18:49:56 49° NNE 18:58:49 10° E visible
01 Feb - 20:46:08 10° WNW 20:55:26 81° SW 21:04:42 10° SE visible
01 Feb - 22:52:36 10° W 22:59:16 23° SW 23:06:00 10° S visible
02 Feb - 12:01:49 10° S 12:10:08 32° SE 12:18:13 10° ENE daylight
02 Feb - 14:04:35 10° WSW 14:14:25 86° NNW 14:23:54 10° NE daylight
02 Feb - 16:11:11 10° W 16:20:17 46° NNW 16:29:10 10° ENE daylight
02 Feb - 18:17:55 10° WNW 18:26:57 48° NNE 18:35:48 10° E visible
02 Feb - 20:23:12 10° WNW 20:32:32 85° SW 20:41:49 10° SE visible
02 Feb - 22:29:28 10° WNW 22:36:27 25° SW 22:43:29 10° S visible
03 Feb - 11:39:10 10° S 11:47:16 30° SE 11:55:09 10° ENE daylight
03 Feb - 13:41:37 10° SW 13:51:29 89° NNW 14:01:01 10° ENE daylight
03 Feb - 15:48:06 10° W 15:57:17 47° NNW 16:06:13 10° ENE daylight
03 Feb - 17:54:56 10° WNW 18:03:57 47° NNE 18:12:47 10° E visible
03 Feb - 20:00:17 10° WNW 20:09:39 89° SSW 20:18:54 10° SE visible
03 Feb - 22:06:21 10° WNW 22:13:38 27° SW 22:20:57 10° S visible
04 Feb - 11:16:33 10° S 11:24:25 27° SE 11:32:04 10° ENE daylight
04 Feb - 13:18:40 10° SW 13:28:33 87° SE 13:38:06 10° ENE daylight
04 Feb - 15:25:01 10° W 15:34:16 48° NNW 15:43:16 10° ENE daylight
04 Feb - 17:31:56 10° WNW 17:40:57 46° NNE 17:49:46 10° E visible
04 Feb - 19:37:20 10° WNW 19:46:44 87° NE 19:56:01 10° SE visible
04 Feb - 21:43:15 10° WNW 21:50:48 29° SW 21:58:22 10° S visible
05 Feb - 10:53:58 10° S 11:01:33 25° SE 11:08:57 10° ENE daylight
05 Feb - 12:55:44 10° SW 13:05:37 83° SE 13:15:11 10° ENE daylight
05 Feb - 15:01:56 10° W 15:11:16 49° NNW 15:20:18 10° ENE daylight
05 Feb - 17:08:56 10° WNW 17:17:57 45° N 17:26:44 10° E daylight
05 Feb - 19:14:24 10° NW 19:23:49 84° NNE 19:33:05 10° ESE visible
05 Feb - 21:20:11 10° WNW 21:27:58 31° SW 21:35:46 10° S visible
06 Feb - 10:31:25 10° S 10:38:42 23° SE 10:45:48 10° E daylight
06 Feb - 12:32:47 10° SW 12:42:42 79° SE 12:52:16 10° ENE daylight
06 Feb - 14:38:52 10° W 14:48:16 50° NNW 14:57:22 10° ENE daylight
06 Feb - 16:45:55 10° WNW 16:54:56 44° N 17:03:43 10° E daylight
06 Feb - 18:51:28 10° NW 19:00:53 80° NNE 19:10:09 10° ESE visible
06 Feb - 20:57:08 10° WNW 21:05:08 34° SW 21:13:07 10° S visible
